Time,TemperatureF,DewpointF,PressureIn,WindDirection,WindDirectionDegrees,WindSpeedMPH,WindSpeedGustMPH,Humidity,HourlyPrecipIn,Conditions,Clouds,dailyrainin,SolarRadiationWatts/m^2,SoftwareType,DateUTC
2013-02-11 00:02:00,43.0,41.0,30.41,SE,129,10.0,21.0,92,0.00,,,0.20,0.000000,,2013-02-11 05:02:00,
2013-02-11 00:32:00,46.0,44.0,30.41,SE,135,9.0,24.0,92,0.00,,,0.20,0.000000,,2013-02-11 05:32:00,
2013-02-11 00:42:00,46.0,44.0,30.41,SE,135,9.0,24.0,92,0.00,,,0.20,0.000000,,2013-02-11 05:42:00,
2013-02-11 00:53:00,46.0,44.0,30.41,SE,135,9.0,24.0,92,0.00,,,0.20,0.000000,,2013-02-11 05:53:00,
2013-02-11 01:02:00,46.0,44.0,30.41,SE,135,9.0,24.0,92,0.00,,,0.20,0.000000,,2013-02-11 06:02:00,
2013-02-11 01:32:00,49.0,46.0,30.41,SE,130,13.0,28.0,90,0.00,,,0.20,0.000000,,2013-02-11 06:32:00,
2013-02-11 01:42:00,49.0,46.0,30.41,SE,130,13.0,28.0,90,0.00,,,0.20,0.000000,,2013-02-11 06:42:00,
2013-02-11 01:52:00,49.0,46.0,30.41,SE,130,13.0,28.0,90,0.00,,,0.20,0.000000,,2013-02-11 06:52:00,
2013-02-11 02:02:00,49.0,46.0,30.41,SE,130,13.0,28.0,90,0.00,,,0.20,0.000000,,2013-02-11 07:02:00,
2013-02-11 02:32:00,49.0,47.0,30.38,SE,125,13.0,26.0,93,0.00,,,0.20,0.000000,,2013-02-11 07:32:00,
2013-02-11 02:42:00,49.0,47.0,30.38,SE,125,13.0,26.0,93,0.00,,,0.20,0.000000,,2013-02-11 07:42:00,
2013-02-11 02:52:00,49.0,47.0,30.38,SE,125,13.0,26.0,93,0.00,,,0.20,0.000000,,2013-02-11 07:52:00,
2013-02-11 03:01:00,49.0,47.0,30.38,SE,125,13.0,26.0,93,0.00,,,0.20,0.000000,,2013-02-11 08:01:00,
2013-02-11 03:32:00,50.0,48.0,30.37,SE,127,9.0,19.0,93,0.00,,,0.20,0.000000,,2013-02-11 08:32:00,
2013-02-11 03:42:00,50.0,48.0,30.37,SE,127,9.0,19.0,93,0.00,,,0.20,0.000000,,2013-02-11 08:42:00,
2013-02-11 03:52:00,50.0,48.0,30.37,SE,127,9.0,19.0,93,0.00,,,0.20,0.000000,,2013-02-11 08:52:00,
2013-02-11 04:02:00,50.0,48.0,30.37,SE,127,9.0,19.0,93,0.00,,,0.20,0.000000,,2013-02-11 09:02:00,
2013-02-11 04:32:00,49.0,46.0,30.37,SE,134,6.0,14.0,91,0.00,,,0.20,0.000000,,2013-02-11 09:32:00,
2013-02-11 04:42:00,49.0,46.0,30.37,SE,134,6.0,14.0,91,0.00,,,0.20,0.000000,,2013-02-11 09:42:00,
2013-02-11 04:52:00,49.0,46.0,30.37,SE,134,6.0,14.0,91,0.00,,,0.20,0.000000,,2013-02-11 09:52:00,
2013-02-11 05:02:00,49.0,46.0,30.37,SE,134,6.0,14.0,91,0.00,,,0.20,0.000000,,2013-02-11 10:02:00,
2013-02-11 05:32:00,50.0,48.0,30.37,NNW,335,3.0,12.0,94,0.01,,,0.21,0.000000,,2013-02-11 10:32:00,
2013-02-11 05:42:00,50.0,48.0,30.37,NNW,335,3.0,12.0,94,0.01,,,0.21,0.000000,,2013-02-11 10:42:00,
2013-02-11 05:52:00,50.0,48.0,30.37,NNW,335,3.0,12.0,94,0.01,,,0.21,0.000000,,2013-02-11 10:52:00,
2013-02-11 06:02:00,50.0,48.0,30.37,NNW,335,3.0,12.0,94,0.01,,,0.21,0.000000,,2013-02-11 11:02:00,
2013-02-11 06:32:00,48.0,47.0,30.34,ESE,122,3.0,7.0,97,0.01,,,0.22,0.000000,,2013-02-11 11:32:00,
2013-02-11 06:42:00,48.0,47.0,30.34,ESE,122,3.0,7.0,97,0.01,,,0.22,0.000000,,2013-02-11 11:42:00,
2013-02-11 06:52:00,48.0,47.0,30.34,ESE,122,3.0,7.0,97,0.01,,,0.22,0.000000,,2013-02-11 11:52:00,
2013-02-11 07:03:00,48.0,47.0,30.34,ESE,122,3.0,7.0,97,0.01,,,0.22,0.000000,,2013-02-11 12:03:00,
2013-02-11 07:32:00,48.0,47.0,30.35,NE,38,2.0,8.0,98,0.00,,,-99.99,0.000000,,2013-02-11 12:32:00,
2013-02-11 07:42:00,48.0,47.0,30.35,NE,38,2.0,8.0,98,0.00,,,-99.99,0.000000,,2013-02-11 12:42:00,
2013-02-11 07:52:00,48.0,47.0,30.35,NE,38,2.0,8.0,98,0.00,,,-99.99,0.000000,,2013-02-11 12:52:00,
2013-02-11 08:02:00,48.0,47.0,30.35,NE,38,2.0,8.0,98,0.00,,,-99.99,0.000000,,2013-02-11 13:02:00,
2013-02-11 08:33:00,49.0,49.0,30.35,NW,313,1.0,3.0,99,0.00,,,-99.99,2.000000,,2013-02-11 13:33:00,
2013-02-11 08:42:00,49.0,49.0,30.35,NW,313,1.0,3.0,99,0.00,,,-99.99,2.000000,,2013-02-11 13:42:00,
2013-02-11 08:52:00,49.0,49.0,30.35,NW,313,1.0,3.0,99,0.00,,,-99.99,2.000000,,2013-02-11 13:52:00,
2013-02-11 09:02:00,49.0,49.0,30.35,NW,313,1.0,3.0,99,0.00,,,-99.99,2.000000,,2013-02-11 14:02:00,
2013-02-11 09:33:00,49.0,49.0,30.36,SE,136,1.0,3.0,99,0.00,,,-99.99,19.000000,,2013-02-11 14:33:00,
2013-02-11 09:42:00,49.0,49.0,30.36,SE,136,1.0,3.0,99,0.00,,,-99.99,19.000000,,2013-02-11 14:42:00,
2013-02-11 09:53:00,49.0,49.0,30.36,SE,136,1.0,3.0,99,0.00,,,-99.99,19.000000,,2013-02-11 14:53:00,
2013-02-11 10:02:00,49.0,49.0,30.36,SE,136,1.0,3.0,99,0.00,,,-99.99,19.000000,,2013-02-11 15:02:00,
2013-02-11 10:32:00,53.0,52.0,30.36,NW,319,2.0,5.0,96,0.00,,,0.22,78.000000,,2013-02-11 15:32:00,
2013-02-11 10:42:00,53.0,52.0,30.36,NW,319,2.0,5.0,96,0.00,,,0.22,78.000000,,2013-02-11 15:42:00,
2013-02-11 10:52:00,53.0,52.0,30.36,NW,319,2.0,5.0,96,0.00,,,0.22,78.000000,,2013-02-11 15:52:00,
2013-02-11 11:02:00,53.0,52.0,30.36,NW,319,2.0,5.0,96,0.00,,,0.22,78.000000,,2013-02-11 16:02:00,
2013-02-11 11:32:00,54.0,51.0,30.38,WNW,297,5.0,9.0,88,0.00,,,0.22,149.000000,,2013-02-11 16:32:00,
2013-02-11 11:42:00,54.0,51.0,30.38,WNW,297,5.0,9.0,88,0.00,,,0.22,149.000000,,2013-02-11 16:42:00,
2013-02-11 11:53:00,54.0,51.0,30.38,WNW,297,5.0,9.0,88,0.00,,,0.22,149.000000,,2013-02-11 16:53:00,
2013-02-11 12:02:00,54.0,51.0,30.38,WNW,297,5.0,9.0,88,0.00,,,0.22,149.000000,,2013-02-11 17:02:00,
2013-02-11 12:32:00,53.0,48.0,30.35,NNE,20,2.0,12.0,84,0.00,,,0.22,72.000000,,2013-02-11 17:32:00,
2013-02-11 12:42:00,53.0,48.0,30.35,NNE,20,2.0,12.0,84,0.00,,,0.22,72.000000,,2013-02-11 17:42:00,
2013-02-11 12:53:00,53.0,48.0,30.35,NNE,20,2.0,12.0,84,0.00,,,0.22,72.000000,,2013-02-11 17:53:00,
2013-02-11 13:02:00,53.0,48.0,30.35,NNE,20,2.0,12.0,84,0.00,,,0.22,72.000000,,2013-02-11 18:02:00,
2013-02-11 13:32:00,57.0,50.0,30.33,NNW,331,2.0,12.0,76,0.00,,,0.22,132.000000,,2013-02-11 18:32:00,
2013-02-11 13:42:00,57.0,50.0,30.33,NNW,331,2.0,12.0,76,0.00,,,0.22,132.000000,,2013-02-11 18:42:00,
2013-02-11 13:54:00,57.0,50.0,30.33,NNW,331,2.0,12.0,76,0.00,,,0.22,132.000000,,2013-02-11 18:54:00,
2013-02-11 14:02:00,57.0,50.0,30.33,NNW,331,2.0,12.0,76,0.00,,,0.22,132.000000,,2013-02-11 19:02:00,
2013-02-11 15:32:00,57.0,41.0,30.32,North,359,2.0,10.0,55,-99.99,,,0.22,156.000000,,2013-02-11 20:32:00,
2013-02-11 15:42:00,57.0,41.0,30.32,North,359,2.0,10.0,55,-99.99,,,0.22,156.000000,,2013-02-11 20:42:00,
2013-02-11 15:52:00,57.0,41.0,30.32,North,359,2.0,10.0,55,-99.99,,,0.22,156.000000,,2013-02-11 20:52:00,
2013-02-11 16:02:00,57.0,41.0,30.32,North,359,2.0,10.0,55,-99.99,,,0.22,156.000000,,2013-02-11 21:02:00,
2013-02-11 16:32:00,55.0,34.0,30.33,NNW,340,5.0,15.0,45,0.00,,,0.22,127.000000,,2013-02-11 21:32:00,
2013-02-11 17:32:00,53.0,38.0,30.34,North,11,3.0,11.0,57,0.00,,,0.22,65.000000,,2013-02-11 22:32:00,
2013-02-11 17:42:00,53.0,38.0,30.34,North,11,3.0,11.0,57,0.00,,,0.22,65.000000,,2013-02-11 22:42:00,
2013-02-11 17:52:00,53.0,38.0,30.34,North,11,3.0,11.0,57,0.00,,,0.22,65.000000,,2013-02-11 22:52:00,
2013-02-11 18:02:00,53.0,38.0,30.34,North,11,3.0,11.0,57,0.00,,,0.22,65.000000,,2013-02-11 23:02:00,
2013-02-11 18:32:00,50.0,35.0,30.34,NNE,19,2.0,9.0,57,0.00,,,0.19,19.000000,,2013-02-11 23:32:00,
2013-02-11 18:42:00,50.0,35.0,30.34,NNE,19,2.0,9.0,57,0.00,,,0.19,19.000000,,2013-02-11 23:42:00,
2013-02-11 18:52:00,50.0,35.0,30.34,NNE,19,2.0,9.0,57,0.00,,,0.19,19.000000,,2013-02-11 23:52:00,
2013-02-11 19:02:00,50.0,35.0,30.34,NNE,19,2.0,9.0,57,0.00,,,0.19,19.000000,,2013-02-12 00:02:00,
2013-02-11 19:32:00,48.0,31.0,30.36,SSW,206,1.0,5.0,52,0.00,,,0.13,0.000000,,2013-02-12 00:32:00,
2013-02-11 19:42:00,48.0,31.0,30.36,SSW,206,1.0,5.0,52,0.00,,,0.13,0.000000,,2013-02-12 00:42:00,
2013-02-11 19:52:00,48.0,31.0,30.36,SSW,206,1.0,5.0,52,0.00,,,0.13,0.000000,,2013-02-12 00:52:00,
2013-02-11 20:02:00,48.0,31.0,30.36,SSW,206,1.0,5.0,52,0.00,,,0.13,0.000000,,2013-02-12 01:02:00,
2013-02-11 20:32:00,45.0,28.0,30.36,NE,37,1.0,9.0,51,0.00,,,-99.99,0.000000,,2013-02-12 01:32:00,
2013-02-11 20:42:00,45.0,28.0,30.36,NE,37,1.0,9.0,51,0.00,,,-99.99,0.000000,,2013-02-12 01:42:00,
2013-02-11 20:52:00,45.0,28.0,30.36,NE,37,1.0,9.0,51,0.00,,,-99.99,0.000000,,2013-02-12 01:52:00,
2013-02-11 21:02:00,45.0,28.0,30.36,NE,37,1.0,9.0,51,0.00,,,-99.99,0.000000,,2013-02-12 02:02:00,
2013-02-11 21:32:00,44.0,28.0,30.37,North,4,2.0,9.0,53,0.00,,,0.04,0.000000,,2013-02-12 02:32:00,
2013-02-11 21:42:00,44.0,28.0,30.37,North,4,2.0,9.0,53,0.00,,,0.04,0.000000,,2013-02-12 02:42:00,
2013-02-11 21:53:00,44.0,28.0,30.37,North,4,2.0,9.0,53,0.00,,,0.04,0.000000,,2013-02-12 02:53:00,
2013-02-11 22:02:00,44.0,28.0,30.37,North,4,2.0,9.0,53,0.00,,,0.04,0.000000,,2013-02-12 03:02:00,
2013-02-11 22:32:00,46.0,29.0,30.38,ENE,74,2.0,13.0,51,0.00,,,0.02,0.000000,,2013-02-12 03:32:00,
2013-02-11 22:42:00,46.0,29.0,30.38,ENE,74,2.0,13.0,51,0.00,,,0.02,0.000000,,2013-02-12 03:42:00,
2013-02-11 22:52:00,46.0,29.0,30.38,ENE,74,2.0,13.0,51,0.00,,,0.02,0.000000,,2013-02-12 03:52:00,
2013-02-11 23:01:00,46.0,29.0,30.38,ENE,74,2.0,13.0,51,0.00,,,0.02,0.000000,,2013-02-12 04:01:00,
2013-02-11 23:32:00,44.0,26.0,30.36,ENE,71,2.0,10.0,48,0.00,,,0.02,0.000000,,2013-02-12 04:32:00,
2013-02-11 23:42:00,44.0,26.0,30.36,ENE,71,2.0,10.0,48,0.00,,,0.02,0.000000,,2013-02-12 04:42:00,
2013-02-11 23:52:00,44.0,26.0,30.36,ENE,71,2.0,10.0,48,0.00,,,0.02,0.000000,,2013-02-12 04:52:00,